< < Back
Terminal Aerodrome Forecast


Current Version              Previous Versions:   1  2  3  4  5  6  7  8  9  

Terminal Aerodrome Forecast

886
FTUS42 KCHS 261926 AAB
TAFSAV
TAF AMD
KSAV 261926Z 2619/2718 13009KT P6SM SCT025 SCT040
     FM270600 VRB02KT 6SM BR SCT005 SCT015
     FM271400 07007KT P6SM SCT020 SCT040=

Latest METAR

960
SAUS80 KWBC 271300 RRB
MTRSAV
METAR KSAV 271253Z 03006KT 10SM FEW015 FEW250 27/22 A3010 RMK AO2 SLP192
T02720222 $


USA.gov is the U.S. government's official web portal to all federal, state and local government web resources and services.